Location: East Guldeford
(50.9500°N, 0.7500°E)
Time: 18:35:11
(UTC+00:00)

Cosmos 1975 - Pass Details

Date: 12 May 2021
Orbit: 541 x 561 km, 82.5° (Epoch: 16 June)

Event Time Altitude Azimuth Distance (km) Brightness Sun altitude
Rises 22:49:15 0° 349° (N) 2,717 8.0 -19.3°
Reaches altitude 10° 22:51:25 10° 350° (N) 1,818 6.7 -19.3°
Maximum altitude 22:55:25 89° 68° (ENE) 549 2.7 -19.5°
Enters shadow 22:56:13 56° 169° (SSE) 650 2.8 -19.5°
